Location: Risskov
(56.1972°N, 10.2480°E)
Time: 13:25:11
(UTC+00:00)

Cosmos 1743 Rocket - Pass Details

Date: 05 July 2020
Orbit: 605 x 631 km, 82.6° (Epoch: 06 August)

Event Time Altitude Azimuth Distance (km) Brightness Sun altitude
Exits shadow 23:12:35 15° 160° (SSE) 1,671 5.2 -11.1°
Maximum altitude 23:15:54 42° 93° (E) 873 4.3 -11.1°
Drops below altitude 10° 23:20:02 10° 23° (NNE) 1,979 7.3 -11.1°
Sets 23:22:21 0° 17° (NNE) 2,893 8.6 -11.1°
